Location: Newark
(48.1383°N, 97.9933°W)
Time: 15:04:03
(UTC+00:00)

Envisat - Visible Passes

Search period start: 29 September 2020 00:00
Search period end: 09 October 2020 00:00
Orbit: 764 x 766 km, 98.1° (Epoch: 29 September)

Date Brightness Start Highest point End Pass type
(mag) Time Alt. Az. Time Alt. Az. Time Alt. Az.
29 Sep 6.6 11:05:07 10° ENE 11:06:31 11° E 11:07:55 10° E visible
01 Oct 6.2 01:03:54 10° SW 01:07:12 17° W 01:10:30 10° NW visible
01 Oct 6.1 11:28:44 10° NE 11:32:19 19° E 11:35:52 10° SE visible
03 Oct 5.2 11:53:30 10° NNE 11:58:01 31° E 12:02:29 10° SSE visible
04 Oct 6.0 00:51:53 10° SW 00:55:42 21° W 00:59:32 10° NW visible
04 Oct 6.2 11:17:52 10° NE 11:20:49 15° E 11:23:44 10° ESE visible
06 Oct 6.5 01:19:18 10° WSW 01:21:29 13° W 01:23:39 10° WNW visible
06 Oct 5.6 11:42:22 10° NE 11:46:33 25° E 11:50:42 10° SSE visible
07 Oct 5.6 00:40:01 10° SSW 00:44:13 26° W 00:48:27 10° NW visible
07 Oct 6.5 11:07:19 10° ENE 11:09:17 12° E 11:11:14 10° ESE visible
08 Oct 4.6 12:07:22 10° NNE 12:12:11 41° E 12:16:58 10° SSE visible
